星链-31075 (STARLINK-31075 )

导读

STARLINK-31075是美国太空探索技术公司(SpaceX)发射的星链(Starlink)低轨互联网卫星,于2023年12月19日发射入轨,属于SpaceX打造的全球巨型卫星互联网星座的一部分,该星座旨在为全球尤其是偏远地区提供高速低延迟的宽带互联网服务,依托近地轨道部署保障网络性能,目前仍在轨运行。

基本信息
目录编号:
58594
目录名称:
STARLINK-31075
国际标识:
2023-200F
轨道中心:
EARTH
卫星名称:
星链-31075
卫星全名:
星链-31075 (STARLINK-31075 )
卫星状态:
在轨 (已飞行990 天)
发射日期:
2023-12-19 UTC
国别 :
美国 (US)
星等 :
--
轨道信息
数据来源 国际轨道数据
星历时间: 2026-09-04T09:17:20+0800
14小时前
查看轨道信息
半长轴: 6861.186km
偏心率: 0.0001468
轨道倾角: 43.002°
近地点辐角 275.739°
升交点赤经 241.173°
平近点角 84.329°
近地点: 482.041km
远地点: 484.057km
周期: 94.267分钟
每日圈数: 15.275801
详细信息
固有亮度:
5
最大亮度:
0.3
卫星平台:
Starlink v2.0 mini
覆盖范围:
全球
运营商:
太空探索技术公司
运营商所在国:
美国
制造商(研发单位):
太空探索技术公司
制造商所在国:
美国
使用方式:
暂无
卫星简介
星链(Starlink)计划是由太空探索技术公司(SpaceX)提出的一个巨型低轨卫星互联网星座项目,计划在2019年至2024年间在太空搭建由约1.2万颗卫星组成的“星链”网络,其中1584颗将部署在地球上空550千米处的近地轨道,并从2020年开始工作。该卫星仍在工作。
2D轨道图
3D轨道图
轨道高度分析图
轨道倾角分析图
轨道综合分析图
查看轨道综合分析图
交会数据列表
事件ID 空间交会对象 最接近时刻(TCA) 交会距离 交会风险概率(CRP) 交会风险指数(CRI) 操作
CDM_260906-233605-859406-734021
2026-09-06T
23:36:38+0000
0.586 km
远距离
7.10249E-5 中风险 0.72
CDM_260906-192005-859406-704821
2026-09-06T
19:20:20+0000
0.742 km
远距离
5.303032E-5 中风险 0.69
CDM_260907-023305-705905-859421
2026-09-07T
02:33:18+0000
0.695 km
远距离
4.258957E-5 中风险 0.68
CDM_260906-042405-723905-859421
2026-09-06T
04:24:36+0000
0.854 km
远距离
3.439028E-5 中风险 0.66
CDM_260906-055805-723905-859421
2026-09-06T
05:58:45+0000
1.075 km
极远距离
1.567275E-5 中风险 0.59
CDM_260907-005905-705905-859421
2026-09-07T
00:59:09+0000
1.283 km
极远距离
5.433754E-6 低风险 0.5
CDM_260907-011005-859406-734021
2026-09-07T
01:10:47+0000
1.643 km
极远距离
2.495373E-6 低风险 0.43
CDM_260906-205405-859406-704821
2026-09-06T
20:54:29+0000
2.221 km
极远距离
1.693165E-6 低风险 0.4
CDM_260906-025005-723905-859421
2026-09-06T
02:50:27+0000
2.304 km
极远距离
1.595483E-6 低风险 0.39
CDM_260906-232405-705905-859421
2026-09-06T
23:24:59+0000
2.095 km
极远距离
1.325155E-6 低风险 0.37